Time,TemperatureF,DewpointF,PressureIn,WindDirection,WindDirectionDegrees,WindSpeedMPH,WindSpeedGustMPH,Humidity,HourlyPrecipIn,Conditions,Clouds,dailyrainin,SoftwareType,DateUTC
2013-09-11 00:02:00,53.0,43.0,-100.00,SE,140,5.0,23.0,70,-99.99,,,-99.99,,2013-09-11 00:02:00,
2013-09-11 00:21:00,53.0,43.0,-100.00,SSE,155,3.0,14.0,70,-99.99,,,-99.99,,2013-09-11 00:21:00,
2013-09-11 00:42:00,53.0,43.0,-100.00,SSE,164,8.0,20.0,69,-99.99,,,-99.99,,2013-09-11 00:42:00,
2013-09-11 00:52:00,53.0,43.0,-100.00,SSE,155,3.0,14.0,70,-99.99,,,-99.99,,2013-09-11 00:52:00,
2013-09-11 01:01:00,53.0,43.0,-100.00,SSE,155,3.0,14.0,70,-99.99,,,-99.99,,2013-09-11 01:01:00,
2013-09-11 01:11:00,53.0,43.0,-100.00,SSE,155,3.0,14.0,70,-99.99,,,-99.99,,2013-09-11 01:11:00,
2013-09-11 01:53:00,52.0,45.0,-100.00,South,170,4.0,17.0,76,-99.99,,,-99.99,,2013-09-11 01:53:00,
2013-09-11 02:11:00,51.0,46.0,-100.00,ESE,122,0.0,11.0,82,-99.99,,,-99.99,,2013-09-11 02:11:00,
2013-09-11 02:22:00,51.0,46.0,-100.00,SSE,148,1.0,12.0,83,-99.99,,,-99.99,,2013-09-11 02:22:00,
2013-09-11 02:43:00,51.0,44.0,-100.00,SSW,194,3.0,10.0,77,-99.99,,,-99.99,,2013-09-11 02:43:00,
2013-09-11 02:51:00,52.0,44.0,-100.00,South,189,2.0,10.0,74,-99.99,,,-99.99,,2013-09-11 02:51:00,
2013-09-11 02:52:00,51.0,44.0,-100.00,SSW,194,3.0,10.0,77,-99.99,,,-99.99,,2013-09-11 02:52:00,
2013-09-11 03:02:00,51.0,44.0,-100.00,SSW,194,3.0,10.0,77,-99.99,,,-99.99,,2013-09-11 03:02:00,
2013-09-11 03:22:00,52.0,44.0,-100.00,South,189,2.0,10.0,74,-99.99,,,-99.99,,2013-09-11 03:22:00,
2013-09-11 03:34:00,52.0,44.0,-100.00,South,189,2.0,10.0,74,-99.99,,,-99.99,,2013-09-11 03:34:00,
2013-09-11 03:44:00,52.0,44.0,-100.00,South,189,2.0,10.0,74,-99.99,,,-99.99,,2013-09-11 03:44:00,
2013-09-11 04:24:00,51.0,43.0,-100.00,SE,142,2.0,17.0,74,-99.99,,,-99.99,,2013-09-11 04:24:00,
2013-09-11 04:33:00,51.0,43.0,-100.00,SE,142,2.0,17.0,74,-99.99,,,-99.99,,2013-09-11 04:33:00,
2013-09-11 04:43:00,51.0,43.0,-100.00,SE,142,2.0,17.0,74,-99.99,,,-99.99,,2013-09-11 04:43:00,
2013-09-11 04:53:00,50.0,50.0,-100.00,SE,139,5.0,0.0,100,-99.99,,,-99.99,,2013-09-11 04:53:00,
2013-09-11 05:03:00,50.0,50.0,-100.00,SE,139,5.0,0.0,100,-99.99,,,-99.99,,2013-09-11 05:03:00,
2013-09-11 05:12:00,50.0,50.0,-100.00,SE,139,5.0,0.0,100,-99.99,,,-99.99,,2013-09-11 05:12:00,
2013-09-11 05:22:00,50.0,42.0,-100.00,East,98,11.0,28.0,75,-99.99,,,-99.99,,2013-09-11 05:22:00,
2013-09-11 05:42:00,50.0,43.0,-100.00,East,85,13.0,27.0,76,-99.99,,,-99.99,,2013-09-11 05:42:00,
2013-09-11 05:53:00,50.0,43.0,-100.00,East,85,13.0,27.0,76,-99.99,,,-99.99,,2013-09-11 05:53:00,
2013-09-11 06:12:00,50.0,42.0,-100.00,ESE,115,1.0,21.0,74,-99.99,,,-99.99,,2013-09-11 06:12:00,
2013-09-11 06:21:00,50.0,41.0,-100.00,NNW,330,4.0,12.0,70,-99.99,,,-99.99,,2013-09-11 06:21:00,
2013-09-11 06:42:00,50.0,42.0,-100.00,West,280,3.0,11.0,75,-99.99,,,-99.99,,2013-09-11 06:42:00,
2013-09-11 06:52:00,48.0,43.0,-100.00,WNW,296,2.0,10.0,83,-99.99,,,-99.99,,2013-09-11 06:52:00,
2013-09-11 07:01:00,48.0,43.0,-100.00,WNW,296,2.0,10.0,83,-99.99,,,-99.99,,2013-09-11 07:01:00,
2013-09-11 07:12:00,48.0,43.0,-100.00,WNW,296,2.0,10.0,83,-99.99,,,-99.99,,2013-09-11 07:12:00,
2013-09-11 07:23:00,49.0,42.0,-100.00,SE,143,2.0,6.0,77,-99.99,,,-99.99,,2013-09-11 07:23:00,
2013-09-11 07:32:00,49.0,42.0,-100.00,SE,143,2.0,6.0,77,-99.99,,,-99.99,,2013-09-11 07:32:00,
2013-09-11 07:42:00,49.0,42.0,-100.00,SE,143,2.0,6.0,77,-99.99,,,-99.99,,2013-09-11 07:42:00,
2013-09-11 07:52:00,47.0,45.0,-100.00,NNE,22,4.0,8.0,91,-99.99,,,-99.99,,2013-09-11 07:52:00,
2013-09-11 08:02:00,47.0,45.0,-100.00,NNE,22,4.0,8.0,91,-99.99,,,-99.99,,2013-09-11 08:02:00,
2013-09-11 08:11:00,47.0,45.0,-100.00,NNE,22,4.0,8.0,91,-99.99,,,-99.99,,2013-09-11 08:11:00,
2013-09-11 08:22:00,46.0,44.0,-100.00,NNE,25,6.0,13.0,94,-99.99,,,-99.99,,2013-09-11 08:22:00,
2013-09-11 08:42:00,46.0,44.0,-100.00,NE,39,4.0,11.0,94,-99.99,,,-99.99,,2013-09-11 08:42:00,
2013-09-11 08:52:00,46.0,44.0,-100.00,NE,39,6.0,13.0,94,-99.99,,,-99.99,,2013-09-11 08:52:00,
2013-09-11 09:12:00,46.0,45.0,-100.00,NE,49,4.0,16.0,95,-99.99,,,-99.99,,2013-09-11 09:12:00,
2013-09-11 09:21:00,46.0,45.0,-100.00,NE,35,2.0,6.0,95,-99.99,,,-99.99,,2013-09-11 09:21:00,
2013-09-11 09:43:00,46.0,45.0,-100.00,NE,36,4.0,10.0,96,-99.99,,,-99.99,,2013-09-11 09:43:00,
2013-09-11 09:53:00,46.0,45.0,-100.00,NNE,31,3.0,9.0,97,-99.99,,,-99.99,,2013-09-11 09:53:00,
2013-09-11 10:02:00,46.0,45.0,-100.00,NNE,31,3.0,9.0,97,-99.99,,,-99.99,,2013-09-11 10:02:00,
2013-09-11 10:12:00,46.0,45.0,-100.00,NNE,31,3.0,9.0,97,-99.99,,,-99.99,,2013-09-11 10:12:00,
2013-09-11 10:23:00,46.0,45.0,-100.00,NNE,28,8.0,13.0,97,-99.99,,,-99.99,,2013-09-11 10:23:00,
2013-09-11 10:42:00,46.0,45.0,-100.00,NE,43,6.0,17.0,98,-99.99,,,-99.99,,2013-09-11 10:42:00,
2013-09-11 10:53:00,46.0,45.0,-100.00,NE,43,6.0,17.0,98,-99.99,,,-99.99,,2013-09-11 10:53:00,
2013-09-11 11:03:00,46.0,45.0,-100.00,NE,43,6.0,17.0,98,-99.99,,,-99.99,,2013-09-11 11:03:00,
2013-09-11 11:21:00,45.0,44.0,-100.00,NNE,22,10.0,19.0,98,-99.99,,,-99.99,,2013-09-11 11:21:00,
2013-09-11 11:42:00,46.0,45.0,-100.00,NNE,31,8.0,14.0,98,-99.99,,,-99.99,,2013-09-11 11:42:00,
2013-09-11 11:51:00,45.0,44.0,-100.00,NNE,25,3.0,6.0,98,-99.99,,,-99.99,,2013-09-11 11:51:00,
2013-09-11 11:52:00,46.0,45.0,-100.00,NNE,31,8.0,14.0,98,-99.99,,,-99.99,,2013-09-11 11:52:00,
2013-09-11 12:01:00,46.0,45.0,-100.00,NNE,31,8.0,14.0,98,-99.99,,,-99.99,,2013-09-11 12:01:00,
2013-09-11 12:21:00,45.0,44.0,-100.00,NNE,25,3.0,6.0,98,-99.99,,,-99.99,,2013-09-11 12:21:00,
2013-09-11 12:32:00,45.0,44.0,-100.00,NNE,25,3.0,6.0,98,-99.99,,,-99.99,,2013-09-11 12:32:00,
2013-09-11 12:42:00,45.0,44.0,-100.00,NNE,25,3.0,6.0,98,-99.99,,,-99.99,,2013-09-11 12:42:00,
2013-09-11 13:12:00,45.0,44.0,-100.00,SW,221,1.0,3.0,98,-99.99,,,-99.99,,2013-09-11 13:12:00,
2013-09-11 13:21:00,45.0,44.0,-100.00,SW,221,1.0,3.0,98,-99.99,,,-99.99,,2013-09-11 13:21:00,
2013-09-11 13:32:00,45.0,44.0,-100.00,SW,221,1.0,3.0,98,-99.99,,,-99.99,,2013-09-11 13:32:00,
2013-09-11 13:52:00,45.0,44.0,-100.00,SW,216,1.0,3.0,98,-99.99,,,-99.99,,2013-09-11 13:52:00,
2013-09-11 14:11:00,45.0,44.0,-100.00,SSW,205,0.0,3.0,98,-99.99,,,-99.99,,2013-09-11 14:11:00,
2013-09-11 14:21:00,45.0,44.0,-100.00,SSE,162,0.0,0.0,98,-99.99,,,-99.99,,2013-09-11 14:21:00,
2013-09-11 14:22:00,44.0,43.0,-100.00,SE,137,0.0,1.0,98,-99.99,,,-99.99,,2013-09-11 14:22:00,
2013-09-11 14:42:00,45.0,44.0,-100.00,SW,225,0.0,1.0,98,-99.99,,,-99.99,,2013-09-11 14:42:00,
2013-09-11 14:52:00,44.0,43.0,-100.00,SE,137,0.0,1.0,98,-99.99,,,-99.99,,2013-09-11 14:52:00,
2013-09-11 15:02:00,44.0,43.0,-100.00,SE,137,0.0,1.0,98,-99.99,,,-99.99,,2013-09-11 15:02:00,
2013-09-11 15:11:00,44.0,43.0,-100.00,SE,137,0.0,1.0,98,-99.99,,,-99.99,,2013-09-11 15:11:00,
2013-09-11 16:13:00,44.0,43.0,-100.00,NE,34,5.0,11.0,98,-99.99,,,-99.99,,2013-09-11 16:13:00,
2013-09-11 16:21:00,43.0,42.0,-100.00,NE,39,8.0,16.0,98,-99.99,,,-99.99,,2013-09-11 16:21:00,
2013-09-11 16:23:00,44.0,43.0,-100.00,NE,34,5.0,11.0,98,-99.99,,,-99.99,,2013-09-11 16:23:00,
2013-09-11 16:43:00,43.0,42.0,-100.00,NE,34,10.0,18.0,98,-99.99,,,-99.99,,2013-09-11 16:43:00,
2013-09-11 16:53:00,43.0,42.0,-100.00,NE,39,8.0,16.0,98,-99.99,,,-99.99,,2013-09-11 16:53:00,
2013-09-11 17:03:00,43.0,42.0,-100.00,NE,39,8.0,16.0,98,-99.99,,,-99.99,,2013-09-11 17:03:00,
2013-09-11 17:12:00,43.0,42.0,-100.00,NE,39,8.0,16.0,98,-99.99,,,-99.99,,2013-09-11 17:12:00,
2013-09-11 17:52:00,41.0,39.0,-100.00,East,101,4.0,10.0,91,-99.99,,,-99.99,,2013-09-11 17:52:00,
2013-09-11 18:02:00,41.0,39.0,-100.00,East,101,4.0,10.0,91,-99.99,,,-99.99,,2013-09-11 18:02:00,
2013-09-11 18:12:00,41.0,39.0,-100.00,East,101,4.0,10.0,91,-99.99,,,-99.99,,2013-09-11 18:12:00,
2013-09-11 18:21:00,41.0,39.0,-100.00,East,101,4.0,10.0,91,-99.99,,,-99.99,,2013-09-11 18:21:00,
2013-09-11 18:42:00,41.0,37.0,-100.00,ESE,110,2.0,19.0,87,-99.99,,,-99.99,,2013-09-11 18:42:00,
2013-09-11 18:51:00,42.0,39.0,-100.00,SE,124,3.0,6.0,89,-99.99,,,-99.99,,2013-09-11 18:51:00,
2013-09-11 18:52:00,41.0,37.0,-100.00,ESE,110,2.0,19.0,87,-99.99,,,-99.99,,2013-09-11 18:52:00,
2013-09-11 19:11:00,42.0,39.0,-100.00,ESE,116,3.0,8.0,88,-99.99,,,-99.99,,2013-09-11 19:11:00,
2013-09-11 19:21:00,42.0,39.0,-100.00,SE,124,3.0,6.0,89,-99.99,,,-99.99,,2013-09-11 19:21:00,
2013-09-11 19:32:00,42.0,39.0,-100.00,SE,124,3.0,6.0,89,-99.99,,,-99.99,,2013-09-11 19:32:00,
2013-09-11 19:42:00,42.0,39.0,-100.00,SE,124,3.0,6.0,89,-99.99,,,-99.99,,2013-09-11 19:42:00,
2013-09-11 20:51:00,45.0,41.0,-100.00,SSW,196,5.0,12.0,87,-99.99,,,-99.99,,2013-09-11 20:51:00,
2013-09-11 21:11:00,45.0,42.0,-100.00,SSW,210,8.0,13.0,88,-99.99,,,-99.99,,2013-09-11 21:11:00,
2013-09-11 21:21:00,45.0,41.0,-100.00,SSW,196,5.0,12.0,87,-99.99,,,-99.99,,2013-09-11 21:21:00,
2013-09-11 21:34:00,45.0,41.0,-100.00,SSW,196,5.0,12.0,87,-99.99,,,-99.99,,2013-09-11 21:34:00,
2013-09-11 21:44:00,45.0,41.0,-100.00,SSW,196,5.0,12.0,87,-99.99,,,-99.99,,2013-09-11 21:44:00,
2013-09-11 21:52:00,45.0,42.0,-100.00,SSW,205,4.0,11.0,90,-99.99,,,-99.99,,2013-09-11 21:52:00,
2013-09-11 22:13:00,44.0,41.0,-100.00,SSW,210,6.0,13.0,90,-99.99,,,-99.99,,2013-09-11 22:13:00,
2013-09-11 22:24:00,45.0,42.0,-100.00,SSW,205,4.0,11.0,90,-99.99,,,-99.99,,2013-09-11 22:24:00,
2013-09-11 22:33:00,45.0,42.0,-100.00,SSW,205,4.0,11.0,90,-99.99,,,-99.99,,2013-09-11 22:33:00,
2013-09-11 23:42:00,48.0,44.0,-100.00,SW,230,5.0,12.0,86,-99.99,,,-99.99,,2013-09-11 23:42:00,
2013-09-11 23:53:00,48.0,43.0,-100.00,SSW,196,8.0,16.0,82,-99.99,,,-99.99,,2013-09-11 23:53:00,